Zurück zum Katalog

COSMOS 1691 DEB

AktivPO
NORAD 16269·DEBRIS·🇷🇺 Russia

Gestartet Oct 9, 1985 von Plesetsk Cosmodrome

Loading…

Nächste Überflüge (nächste 24 Stunden)

TLE

AktuellSource: Space-Track

Epoche: Sep 13, 2026, 23:46 UTC

1 16269U 85094N   26256.99067674  .00000010  00000-0 -36498-5 0  9996
2 16269  82.6186 254.8869 0010336 277.8218 109.3932 12.62292571884832

Verfolge COSMOS 1691 DEB in Echtzeit mit AllMySat

Download on the App Store